| time (UTC) | temp F | wind direction | speed MPH | gust MPH | rain 1hr in | rain 24hr in | rain mn in | humidity % | barometer mb |
| 20260503175230 | 85 | 340 | 2.0 | 5.0 | 0.00 | 0.00 | 0.00 | 33 | 1009.2 |
| 20260503174958 | 85 | 307 | 1.0 | 4.0 | 0.00 | 0.00 | 0.00 | 36 | 1009.3 |
| 20260503174230 | 85 | 312 | 1.0 | 4.0 | 0.00 | 0.00 | 0.00 | 37 | 1009.2 |
| 20260503173731 | 85 | 28 | 1.0 | 4.0 | 0.00 | 0.00 | 0.00 | 34 | 1009.4 |
| 20260503173230 | 84 | 307 | 1.0 | 3.0 | 0.00 | 0.00 | 0.00 | 36 | 1009.3 |
| 20260503172730 | 84 | 75 | 1.0 | 3.0 | 0.00 | 0.00 | 0.00 | 37 | 1009.3 |
| 20260503172230 | 84 | 345 | 1.0 | 3.0 | 0.00 | 0.00 | 0.00 | 38 | 1009.3 |
| 20260503171730 | 83 | 23 | 1.0 | 3.0 | 0.00 | 0.00 | 0.00 | 40 | 1009.5 |
| 20260503171232 | 83 | 347 | 1.0 | 3.0 | 0.00 | 0.00 | 0.00 | 40 | 1009.4 |
| 20260503170959 | 83 | 58 | 1.0 | 4.0 | 0.00 | 0.00 | 0.00 | 40 | 1009.5 |
| 20260503170500 | 82 | 136 | 1.0 | 4.0 | 0.00 | 0.00 | 0.00 | 40 | 1009.6 |
| 20260503150729 | 75 | 91 | 0.0 | 1.0 | 0.00 | 0.00 | 0.00 | 54 | 1009.7 |
| 20260503150230 | 74 | 34 | 0.0 | 3.0 | 0.00 | 0.00 | 0.00 | 56 | 1009.6 |
| 20260503131204 | 68 | 1 | 0.0 | 2.0 | 0.00 | 0.00 | 0.00 | 63 | 1008.5 |
| 20260503130704 | 67 | 271 | 0.0 | 1.0 | 0.00 | 0.00 | 0.00 | 63 | 1008.5 |
| 20260503130205 | 68 | 28 | 0.0 | 1.0 | 0.00 | 0.00 | 0.00 | 63 | 1008.3 |
| 20260503120145 | 70 | 202 | 0.0 | 2.0 | 0.00 | 0.00 | 0.00 | 58 | 1008.0 |
| 20260503110637 | 72 | 17 | 0.0 | 1.0 | 0.00 | 0.00 | 0.00 | 53 | 1007.9 |
| 20260503110134 | 73 | 17 | 0.0 | 1.0 | 0.00 | 0.00 | 0.00 | 52 | 1008.0 |
| 20260503100129 | 75 | 314 | 0.0 | 2.0 | 0.00 | 0.00 | 0.00 | 47 | 1008.2 |
| 20260503090354 | 78 | 268 | 0.0 | 1.0 | 0.00 | 0.00 | 0.00 | 43 | 1008.7 |
| 20260503081622 | 79 | 356 | 0.0 | 2.0 | 0.00 | 0.00 | 0.00 | 43 | 1009.2 |
| 20260503081123 | 79 | 255 | 1.0 | 7.0 | 0.00 | 0.00 | 0.00 | 43 | 1009.1 |
| 20260503080620 | 79 | 353 | 1.0 | 7.0 | 0.00 | 0.00 | 0.00 | 43 | 1009.1 |
| 20260503080346 | 79 | 340 | 0.0 | 3.0 | 0.00 | 0.00 | 0.00 | 42 | 1009.3 |
| 20260503072615 | 80 | 30 | 1.0 | 3.0 | 0.00 | 0.00 | 0.00 | 41 | 1009.1 |
| 20260503072115 | 80 | 319 | 1.0 | 3.0 | 0.00 | 0.00 | 0.00 | 41 | 1009.4 |
| 20260503071614 | 80 | 15 | 0.0 | 2.0 | 0.00 | 0.00 | 0.00 | 41 | 1009.3 |
| 20260503071116 | 81 | 61 | 0.0 | 2.0 | 0.00 | 0.00 | 0.00 | 40 | 1009.3 |
| 20260503070614 | 81 | 245 | 1.0 | 5.0 | 0.00 | 0.00 | 0.00 | 41 | 1009.3 |
| 20260503070116 | 80 | 346 | 1.0 | 5.0 | 0.00 | 0.00 | 0.00 | 41 | 1009.1 |
| 20260503060334 | 82 | 262 | 0.0 | 3.0 | 0.00 | 0.00 | 0.00 | 39 | 1009.5 |
| 20260503055103 | 82 | 124 | 1.0 | 2.0 | 0.00 | 0.00 | 0.00 | 39 | 1009.2 |
| 20260503054826 | 82 | 212 | 0.0 | 2.0 | 0.00 | 0.00 | 0.00 | 39 | 1009.2 |
| 20260503054102 | 82 | 68 | 0.0 | 1.0 | 0.00 | 0.00 | 0.00 | 39 | 1009.2 |
| 20260503053601 | 83 | 68 | 0.0 | 1.0 | 0.00 | 0.00 | 0.00 | 38 | 1009.3 |
| 20260503053102 | 83 | 74 | 0.0 | 2.0 | 0.00 | 0.00 | 0.00 | 37 | 1009.4 |
| 20260503052601 | 83 | 74 | 0.0 | 2.0 | 0.00 | 0.00 | 0.00 | 37 | 1009.3 |
| 20260503052102 | 83 | 168 | 0.0 | 2.0 | 0.00 | 0.00 | 0.00 | 37 | 1009.2 |
| 20260503051601 | 84 | 233 | 0.0 | 2.0 | 0.00 | 0.00 | 0.00 | 36 | 1009.2 |
| 20260503051102 | 84 | 277 | 0.0 | 1.0 | 0.00 | 0.00 | 0.00 | 36 | 1009.1 |
| 20260503050602 | 84 | 352 | 0.0 | 1.0 | 0.00 | 0.00 | 0.00 | 36 | 1009.2 |
| 20260503050100 | 85 | 50 | 0.0 | 2.0 | 0.00 | 0.00 | 0.00 | 35 | 1009.1 |
| 20260503045601 | 85 | 91 | 0.0 | 2.0 | 0.00 | 0.00 | 0.00 | 34 | 1009.1 |
| 20260503045101 | 85 | 15 | 0.0 | 1.0 | 0.00 | 0.00 | 0.00 | 34 | 1009.0 |
| 20260503044827 | 85 | 15 | 0.0 | 2.0 | 0.00 | 0.00 | 0.00 | 33 | 1009.0 |
| 20260503044101 | 86 | 11 | 0.0 | 3.0 | 0.00 | 0.00 | 0.00 | 33 | 1009.0 |
| 20260503043827 | 86 | 74 | 0.0 | 3.0 | 0.00 | 0.00 | 0.00 | 32 | 1008.9 |
| 20260503043100 | 86 | 96 | 0.0 | 2.0 | 0.00 | 0.00 | 0.00 | 31 | 1008.8 |
| 20260503042836 | 86 | 83 | 0.0 | 0.0 | 0.00 | 0.00 | 0.00 | 30 | 1008.8 |
| 20260503042102 | 86 | 122 | 0.0 | 1.0 | 0.00 | 0.00 | 0.00 | 30 | 1008.7 |
| 20260503041601 | 86 | 122 | 0.0 | 1.0 | 0.00 | 0.00 | 0.00 | 30 | 1008.5 |
| 20260503041102 | 86 | 165 | 0.0 | 3.0 | 0.00 | 0.00 | 0.00 | 29 | 1008.6 |
| 20260503040601 | 87 | 193 | 0.0 | 3.0 | 0.00 | 0.00 | 0.00 | 29 | 1008.4 |
| 20260503035601 | 87 | 106 | 0.0 | 3.0 | 0.00 | 0.00 | 0.00 | 24 | 1008.4 |
| 20260503035100 | 88 | 255 | 0.0 | 1.0 | 0.00 | 0.00 | 0.00 | 23 | 1008.4 |
| 20260503034605 | 88 | 19 | 0.0 | 5.0 | 0.00 | 0.00 | 0.00 | 19 | 1008.3 |
| 20260503034101 | 89 | 326 | 0.0 | 5.0 | 0.00 | 0.00 | 0.00 | 18 | 1008.2 |
| 20260503033830 | 89 | 119 | 0.0 | 2.0 | 0.00 | 0.00 | 0.00 | 17 | 1008.2 |
| 20260503033101 | 90 | 137 | 2.0 | 4.0 | 0.00 | 0.00 | 0.00 | 16 | 1007.9 |
| 20260503032102 | 91 | 229 | 2.0 | 7.0 | 0.00 | 0.00 | 0.00 | 18 | 1007.7 |
| 20260503031602 | 91 | 233 | 2.0 | 8.0 | 0.00 | 0.00 | 0.00 | 16 | 1007.6 |
| 20260503031101 | 91 | 239 | 3.0 | 8.0 | 0.00 | 0.00 | 0.00 | 16 | 1007.5 |
| 20260503030823 | 91 | 228 | 4.0 | 8.0 | 0.00 | 0.00 | 0.00 | 16 | 1007.3 |
| 20260503025601 | 91 | 122 | 4.0 | 9.0 | 0.00 | 0.00 | 0.00 | 17 | 1007.0 |
| 20260503025101 | 92 | 121 | 4.0 | 8.0 | 0.00 | 0.00 | 0.00 | 14 | 1007.0 |
| 20260503024602 | 92 | 139 | 4.0 | 11.0 | 0.00 | 0.00 | 0.00 | 13 | 1006.9 |
| 20260503024101 | 92 | 209 | 4.0 | 11.0 | 0.00 | 0.00 | 0.00 | 13 | 1006.8 |
| 20260503023556 | 92 | 113 | 3.0 | 10.0 | 0.00 | 0.00 | 0.00 | 13 | 1006.8 |
| 20260503023050 | 92 | 93 | 3.0 | 7.0 | 0.00 | 0.00 | 0.00 | 14 | 1006.8 |
| 20260503022544 | 92 | 129 | 3.0 | 7.0 | 0.00 | 0.00 | 0.00 | 14 | 1006.8 |
| 20260503022038 | 92 | 103 | 3.0 | 12.0 | 0.00 | 0.00 | 0.00 | 13 | 1006.7 |
| 20260503021803 | 92 | 95 | 4.0 | 12.0 | 0.00 | 0.00 | 0.00 | 13 | 1006.7 |
| 20260503021030 | 93 | 131 | 4.0 | 9.0 | 0.00 | 0.00 | 0.00 | 13 | 1006.7 |
| 20260503020530 | 93 | 88 | 2.0 | 8.0 | 0.00 | 0.00 | 0.00 | 13 | 1006.8 |
| 20260503020030 | 94 | 106 | 3.0 | 8.0 | 0.00 | 0.00 | 0.00 | 12 | 1006.7 |
| 20260503015531 | 94 | 86 | 4.0 | 11.0 | 0.00 | 0.00 | 0.00 | 13 | 1006.8 |
| 20260503015030 | 94 | 185 | 5.0 | 11.0 | 0.00 | 0.00 | 0.00 | 13 | 1006.8 |
| 20260503014530 | 94 | 92 | 4.0 | 10.0 | 0.00 | 0.00 | 0.00 | 13 | 1007.0 |
| 20260503014033 | 95 | 75 | 4.0 | 10.0 | 0.00 | 0.00 | 0.00 | 12 | 1007.0 |
| 20260503013530 | 95 | 123 | 4.0 | 10.0 | 0.00 | 0.00 | 0.00 | 12 | 1006.9 |
| 20260503013303 | 95 | 108 | 4.0 | 10.0 | 0.00 | 0.00 | 0.00 | 11 | 1006.8 |
| 20260503012533 | 95 | 115 | 4.0 | 10.0 | 0.00 | 0.00 | 0.00 | 12 | 1006.9 |
| 20260503012043 | 96 | 80 | 4.0 | 9.0 | 0.00 | 0.00 | 0.00 | 12 | 1006.9 |
| 20260503011759 | 96 | 87 | 4.0 | 9.0 | 0.00 | 0.00 | 0.00 | 12 | 1006.9 |
| 20260503011257 | 96 | 78 | 4.0 | 11.0 | 0.00 | 0.00 | 0.00 | 12 | 1006.8 |
| 20260503010530 | 96 | 84 | 4.0 | 11.0 | 0.00 | 0.00 | 0.00 | 11 | 1006.9 |
| 20260503010030 | 96 | 126 | 3.0 | 9.0 | 0.00 | 0.00 | 0.00 | 11 | 1006.9 |
| 20260503005530 | 96 | 89 | 4.0 | 10.0 | 0.00 | 0.00 | 0.00 | 11 | 1006.8 |
| 20260503005042 | 96 | 70 | 4.0 | 10.0 | 0.00 | 0.00 | 0.00 | 11 | 1006.8 |
| 20260503004032 | 96 | 114 | 5.0 | 12.0 | 0.00 | 0.00 | 0.00 | 11 | 1007.0 |
| 20260503003532 | 96 | 116 | 6.0 | 12.0 | 0.00 | 0.00 | 0.00 | 11 | 1007.0 |
| 20260503003031 | 97 | 98 | 5.0 | 11.0 | 0.00 | 0.00 | 0.00 | 10 | 1007.0 |
| 20260503002530 | 97 | 68 | 4.0 | 11.0 | 0.00 | 0.00 | 0.00 | 10 | 1007.0 |
| 20260503002032 | 97 | 96 | 5.0 | 11.0 | 0.00 | 0.00 | 0.00 | 11 | 1006.8 |
| 20260503001529 | 97 | 63 | 4.0 | 11.0 | 0.00 | 0.00 | 0.00 | 10 | 1006.8 |
| 20260503001030 | 97 | 63 | 4.0 | 12.0 | 0.00 | 0.00 | 0.00 | 11 | 1006.9 |
| 20260503000030 | 97 | 46 | 5.0 | 13.0 | 0.00 | 0.00 | 0.00 | 11 | 1007.0 |
| 20260502235031 | 97 | 79 | 4.0 | 13.0 | 0.00 | 0.00 | 0.00 | 10 | 1007.1 |
| 20260502234530 | 97 | 88 | 4.0 | 10.0 | 0.00 | 0.00 | 0.00 | 10 | 1007.2 |
| 20260502234030 | 97 | 63 | 3.0 | 10.0 | 0.00 | 0.00 | 0.00 | 10 | 1007.2 |
| 20260502233529 | 97 | 99 | 4.0 | 11.0 | 0.00 | 0.00 | 0.00 | 10 | 1007.3 |
| 20260502233030 | 98 | 58 | 5.0 | 11.0 | 0.00 | 0.00 | 0.00 | 10 | 1007.3 |
| 20260502232529 | 98 | 98 | 5.0 | 10.0 | 0.00 | 0.00 | 0.00 | 11 | 1007.4 |
| 20260502232025 | 98 | 119 | 4.0 | 10.0 | 0.00 | 0.00 | 0.00 | 10 | 1007.5 |
| 20260502231520 | 99 | 103 | 3.0 | 10.0 | 0.00 | 0.00 | 0.00 | 10 | 1007.4 |
| 20260502231242 | 98 | 88 | 3.0 | 11.0 | 0.00 | 0.00 | 0.00 | 11 | 1007.4 |
| 20260502230508 | 98 | 134 | 4.0 | 11.0 | 0.00 | 0.00 | 0.00 | 11 | 1007.4 |
| 20260502230002 | 98 | 105 | 4.0 | 13.0 | 0.00 | 0.00 | 0.00 | 11 | 1007.5 |
| 20260502225503 | 98 | 106 | 3.0 | 13.0 | 0.00 | 0.00 | 0.00 | 10 | 1007.6 |
| 20260502225003 | 98 | 108 | 3.0 | 12.0 | 0.00 | 0.00 | 0.00 | 11 | 1007.7 |
| 20260502224502 | 98 | 60 | 4.0 | 12.0 | 0.00 | 0.00 | 0.00 | 10 | 1007.7 |
| 20260502224002 | 97 | 120 | 3.0 | 10.0 | 0.00 | 0.00 | 0.00 | 11 | 1008.0 |
| 20260502223502 | 97 | 56 | 4.0 | 9.0 | 0.00 | 0.00 | 0.00 | 11 | 1008.0 |
| 20260502223004 | 97 | 79 | 4.0 | 10.0 | 0.00 | 0.00 | 0.00 | 11 | 1008.2 |
| 20260502222502 | 98 | 58 | 4.0 | 13.0 | 0.00 | 0.00 | 0.00 | 11 | 1008.2 |
| 20260502222002 | 98 | 118 | 3.0 | 13.0 | 0.00 | 0.00 | 0.00 | 11 | 1008.4 |
| 20260502221735 | 98 | 115 | 3.0 | 10.0 | 0.00 | 0.00 | 0.00 | 11 | 1008.5 |
| 20260502221002 | 98 | 75 | 3.0 | 10.0 | 0.00 | 0.00 | 0.00 | 11 | 1008.7 |
| 20260502220501 | 97 | 67 | 3.0 | 9.0 | 0.00 | 0.00 | 0.00 | 11 | 1008.7 |
| 20260502220001 | 97 | 84 | 4.0 | 11.0 | 0.00 | 0.00 | 0.00 | 11 | 1008.7 |
| 20260502215503 | 97 | 75 | 5.0 | 11.0 | 0.00 | 0.00 | 0.00 | 11 | 1008.7 |
| 20260502215001 | 97 | 149 | 4.0 | 9.0 | 0.00 | 0.00 | 0.00 | 11 | 1008.7 |
| 20260502214754 | 97 | 90 | 4.0 | 9.0 | 0.00 | 0.00 | 0.00 | 11 | 1008.7 |
| 20260502213728 | 98 | 104 | 5.0 | 11.0 | 0.00 | 0.00 | 0.00 | 11 | 1008.8 |
| 20260502213220 | 97 | 86 | 6.0 | 12.0 | 0.00 | 0.00 | 0.00 | 10 | 1009.0 |
| 20260502212447 | 98 | 89 | 5.0 | 12.0 | 0.00 | 0.00 | 0.00 | 10 | 1009.0 |
| 20260502211940 | 98 | 70 | 3.0 | 10.0 | 0.00 | 0.00 | 0.00 | 11 | 1009.0 |
| 20260502211433 | 98 | 87 | 4.0 | 10.0 | 0.00 | 0.00 | 0.00 | 11 | 1009.0 |
| 20260502210930 | 98 | 113 | 4.0 | 10.0 | 0.00 | 0.00 | 0.00 | 10 | 1009.1 |
| 20260502210435 | 98 | 199 | 3.0 | 9.0 | 0.00 | 0.00 | 0.00 | 11 | 1009.1 |
| 20260502205433 | 98 | 94 | 3.0 | 9.0 | 0.00 | 0.00 | 0.00 | 11 | 1009.2 |
| 20260502205159 | 98 | 58 | 3.0 | 9.0 | 0.00 | 0.00 | 0.00 | 12 | 1009.5 |
| 20260502204431 | 98 | 171 | 4.0 | 11.0 | 0.00 | 0.00 | 0.00 | 12 | 1009.5 |
| 20260502203930 | 97 | 34 | 4.0 | 11.0 | 0.00 | 0.00 | 0.00 | 11 | 1009.7 |
| 20260502203430 | 97 | 77 | 3.0 | 9.0 | 0.00 | 0.00 | 0.00 | 11 | 1009.7 |
| 20260502202930 | 98 | 84 | 4.0 | 10.0 | 0.00 | 0.00 | 0.00 | 10 | 1009.8 |
| 20260502202430 | 97 | 153 | 5.0 | 11.0 | 0.00 | 0.00 | 0.00 | 10 | 1009.9 |
| 20260502201929 | 97 | 82 | 4.0 | 11.0 | 0.00 | 0.00 | 0.00 | 10 | 1010.0 |
| 20260502201431 | 97 | 138 | 4.0 | 8.0 | 0.00 | 0.00 | 0.00 | 10 | 1010.0 |
| 20260502200931 | 98 | 82 | 3.0 | 8.0 | 0.00 | 0.00 | 0.00 | 10 | 1010.2 |
| 20260502200704 | 98 | 126 | 2.0 | 7.0 | 0.00 | 0.00 | 0.00 | 10 | 1010.3 |
| 20260502195930 | 97 | 127 | 3.0 | 10.0 | 0.00 | 0.00 | 0.00 | 10 | 1010.4 |
| 20260502195701 | 96 | 132 | 3.0 | 10.0 | 0.00 | 0.00 | 0.00 | 10 | 1010.3 |
| 20260502194930 | 97 | 105 | 2.0 | 7.0 | 0.00 | 0.00 | 0.00 | 10 | 1010.6 |
| 20260502194430 | 97 | 52 | 2.0 | 7.0 | 0.00 | 0.00 | 0.00 | 11 | 1010.6 |
| 20260502193932 | 96 | 79 | 3.0 | 10.0 | 0.00 | 0.00 | 0.00 | 12 | 1010.5 |
| 20260502193435 | 97 | 241 | 3.0 | 10.0 | 0.00 | 0.00 | 0.00 | 9 | 1010.6 |
| 20260502192934 | 97 | 243 | 2.0 | 6.0 | 0.00 | 0.00 | 0.00 | 9 | 1010.7 |
| 20260502191931 | 98 | 180 | 2.0 | 8.0 | 0.00 | 0.00 | 0.00 | 9 | 1010.7 |
| 20260502191429 | 98 | 98 | 2.0 | 7.0 | 0.00 | 0.00 | 0.00 | 10 | 1010.8 |
| 20260502191157 | 97 | 64 | 2.0 | 7.0 | 0.00 | 0.00 | 0.00 | 10 | 1011.0 |
| 20260502190430 | 96 | 167 | 2.0 | 7.0 | 0.00 | 0.00 | 0.00 | 9 | 1011.1 |
| 20260502185929 | 96 | 118 | 2.0 | 6.0 | 0.00 | 0.00 | 0.00 | 10 | 1011.1 |
| 20260502185429 | 96 | 88 | 2.0 | 6.0 | 0.00 | 0.00 | 0.00 | 10 | 1011.2 |
| 20260502184929 | 96 | 116 | 2.0 | 6.0 | 0.00 | 0.00 | 0.00 | 10 | 1011.3 |
| 20260502184430 | 96 | 156 | 2.0 | 5.0 | 0.00 | 0.00 | 0.00 | 10 | 1011.3 |
| 20260502183931 | 96 | 30 | 1.0 | 5.0 | 0.00 | 0.00 | 0.00 | 10 | 1011.3 |
| 20260502183428 | 96 | 65 | 1.0 | 6.0 | 0.00 | 0.00 | 0.00 | 12 | 1011.4 |
| 20260502182929 | 96 | 210 | 2.0 | 6.0 | 0.00 | 0.00 | 0.00 | 10 | 1011.4 |
| 20260502182428 | 96 | 310 | 2.0 | 5.0 | 0.00 | 0.00 | 0.00 | 11 | 1011.5 |
| 20260502181929 | 96 | 208 | 1.0 | 5.0 | 0.00 | 0.00 | 0.00 | 10 | 1011.6 |
| 20260502181423 | 96 | 235 | 1.0 | 4.0 | 0.00 | 0.00 | 0.00 | 10 | 1011.7 |
| 20260502180918 | 95 | 67 | 2.0 | 6.0 | 0.00 | 0.00 | 0.00 | 9 | 1011.8 |
| 20260502180417 | 95 | 124 | 2.0 | 6.0 | 0.00 | 0.00 | 0.00 | 10 | 1011.8 |